Regional Weather Roundup
Issued by NWS

Current Version | Previous Version | Text Only | Print | Product List | Glossary On
Versions: 1 2 3 4 5 6 7 8 9 10 11 12 13 14 15 16 17 18 19 20 21 22 23 24 25 26 27 28 29 30 31 32 33 34 35 36 37 38 39 40 41 42 43 44 45 46 47 48 49 50
000
ASUS42 KFFC 050503
RWRGA
WEATHER ROUNDUP FOR GEORGIA
NATIONAL WEATHER SERVICE PEACHTREE CITY GA
100 AM EDT SUN JUL 05 2015

NOTE: "FAIR" INDICATES FEW OR NO CLOUDS BELOW 12,000 FEET WITH NO
SIGNIFICANT WEATHER AND/OR OBSTRUCTIONS TO VISIBILITY.

* = USE WITH CAUTION. THE STATIONS MARKED WITH AN ASTERISK MAY NOT
REPORT WEATHER SUCH AS PRECIPITATION, FOG, OR THUNDER AND ARE NOT
QUALITY CONTROLLED BY NWS.

THE REMARK "TC" DENOTES TEMPERATURE READING IN DEGREES CELSIUS.

GAZ001>058-050600-
NORTH GEORGIA

CITY           SKY/WX    TMP DP  RH WIND       PRES   REMARKS
ATLANTA        CLOUDY    71  67  87 S5        30.07F
ATHENS         CLOUDY    73  71  93 S6        30.08F
CHAMBLEE       CLOUDY    71  70  96 S6        30.07F
PEACHTREE CITY CLOUDY    69  67  93 S3        30.09F
ROME           CLOUDY    73  67  81 S5        30.04S
WEST ATLANTA   CLOUDY    71  68  90 S5        30.07F
GAINESVILLE    CLOUDY    72  71  97 CALM      30.11S FOG
CARTERSVILLE   CLOUDY    71  67  87 S3        30.06F


CITY           SKY/WX    TMP DP  RH WIND       PRES   REMARKS
DALTON*        CLOUDY    72  70  94 CALM      30.04F
MARIETTA       CLOUDY    71  71  97 S3        30.07F
BLAIRSVILLE*   HVY RAIN  68  61  78 CALM      30.13R
$$

GAZ059>098-102>109-050600-
CENTRAL GEORGIA

CITY           SKY/WX    TMP DP  RH WIND       PRES   REMARKS
AUGUSTA-BUSH   MOCLDY    72  71  97 S5        30.08F
AUGUSTA-DANIEL MOCLDY    74  70  87 S6        30.10F
COLUMBUS       CLOUDY    70  68  93 SW6       30.10S
MACON          CLOUDY    73  71  93 SW6       30.09F
ROBINS AFB     CLOUDY    73  71  95 SW9       30.08F


CITY           SKY/WX    TMP DP  RH WIND       PRES   REMARKS
LAGRANGE*      CLOUDY    72  72 100 SW5       30.10S
SYLVANIA*      MOCLDY    73  73  99 CALM      30.11F
MILLEDGEVILLE* CLOUDY    73  70  88 CALM      30.08F
$$

GAZ099>101-110>166-050600-
SOUTH GEORGIA

CITY           SKY/WX    TMP DP  RH WIND       PRES   REMARKS
SAVANNAH       PTCLDY    73  69  87 SW3       30.12S
VALDOSTA       PTCLDY    73  72  96 S3        30.13S
ALMA           PTCLDY    72  71  97 S5        30.14R
ST SIMONS      PTCLDY    74  73  97 SW5       30.13S
FT STEWART     PTCLDY    72  70  94 S2        30.10F FOG
ALBANY         PTCLDY    70  68  93 CALM      30.14S
HUNTER AFB     PTCLDY    73  73 100 S3        30.10S
MOODY AFB      PTCLDY    71  68  92 SE2       30.13R
BRUNSWICK      PTCLDY    73  72  94 CALM      30.14F


CITY           SKY/WX    TMP DP  RH WIND       PRES   REMARKS
BAINBRIDGE*    CLEAR     73  72  94 CALM      30.11F
MOULTRIE*      PTCLDY    73  70  88 SE3       30.13F
VIDALIA*       MOCLDY    72  70  94 SW3       30.12S
WAYCROSS*      PTCLDY    75  74  99 S3        30.13F
DOUGLAS*       PTCLDY    73  72  94 NW3       30.16R
$$



USA.gov is the U.S. government's official web portal to all federal, state and local government web resources and services.